Location: St. Louis
(38.6270°N, 90.1994°W)
Time: 08:35:12
(UTC-06:00)

SR - Pass Details

Date: 03 December 2021
Orbit: 582 x 872 km, 66.7° (Epoch: 21 January)

Event Time Altitude Azimuth Distance (km) Brightness Sun altitude
Rises 22:30:08 0° 188° (S) 3,047 - -66.2°
Reaches altitude 10° 22:32:38 10° 180° (S) 2,087 - -66.6°
Maximum altitude 22:36:58 37° 113° (ESE) 980 - -67.2°
Drops below altitude 10° 22:41:02 10° 45° (NE) 1,967 - -67.8°
Sets 22:43:20 0° 38° (NE) 2,848 - -68.2°
